TimeEST,TemperatureF,Dew PointF,Humidity,Sea Level PressureIn,VisibilityMPH,Wind Direction,Wind SpeedMPH,Gust SpeedMPH,PrecipitationIn,Events,Conditions,WindDirDegrees,DateUTC
12:53 AM,55.0,54.0,96,29.97,10.0,South,4.6,-,N/A,,Clear,190,2013-01-12 05:53:00
1:53 AM,57.0,55.0,93,29.97,10.0,SSW,6.9,-,0.01,,Clear,200,2013-01-12 06:53:00
2:34 AM,59.0,57.2,94,29.99,10.0,SSW,9.2,-,N/A,,Mostly Cloudy,210,2013-01-12 07:34:00
2:50 AM,59.0,57.2,94,29.98,10.0,SSW,8.1,-,N/A,,Mostly Cloudy,200,2013-01-12 07:50:00
2:53 AM,59.0,57.0,93,29.97,10.0,SSW,10.4,-,N/A,,Mostly Cloudy,210,2013-01-12 07:53:00
3:10 AM,59.0,57.2,94,29.99,10.0,SSW,9.2,-,N/A,,Scattered Clouds,210,2013-01-12 08:10:00
3:53 AM,57.9,57.0,97,29.97,10.0,SSW,8.1,-,N/A,,Clear,210,2013-01-12 08:53:00
4:44 AM,57.2,57.2,100,29.98,10.0,SSW,5.8,-,N/A,,Mostly Cloudy,210,2013-01-12 09:44:00
4:53 AM,57.9,57.0,97,29.97,10.0,SSW,4.6,-,N/A,,Mostly Cloudy,210,2013-01-12 09:53:00
5:23 AM,57.2,57.2,100,29.97,10.0,South,5.8,-,N/A,,Partly Cloudy,180,2013-01-12 10:23:00
5:34 AM,55.4,55.4,100,29.98,6.0,SSW,3.5,-,N/A,,Scattered Clouds,200,2013-01-12 10:34:00
5:53 AM,55.9,55.0,97,29.98,2.5,Calm,Calm,-,N/A,,Scattered Clouds,0,2013-01-12 10:53:00
5:58 AM,55.4,55.4,100,29.98,1.5,Calm,Calm,-,N/A,,Mostly Cloudy,0,2013-01-12 10:58:00
6:03 AM,55.4,55.4,100,29.98,0.8,Calm,Calm,-,N/A,,Mostly Cloudy,0,2013-01-12 11:03:00
6:16 AM,55.4,55.4,100,29.99,1.5,South,3.5,-,N/A,,Mostly Cloudy,190,2013-01-12 11:16:00
6:19 AM,53.6,53.6,100,29.99,3.0,Calm,Calm,-,N/A,,Mostly Cloudy,0,2013-01-12 11:19:00
6:23 AM,53.6,53.6,100,29.99,1.8,South,3.5,-,N/A,,Overcast,190,2013-01-12 11:23:00
6:30 AM,55.4,55.4,100,29.99,3.0,South,4.6,-,N/A,,Mostly Cloudy,190,2013-01-12 11:30:00
6:39 AM,55.4,55.4,100,29.99,1.8,SW,4.6,-,N/A,,Mostly Cloudy,220,2013-01-12 11:39:00
6:51 AM,55.4,55.4,100,30.00,3.0,SSW,4.6,-,N/A,,Mostly Cloudy,200,2013-01-12 11:51:00
6:53 AM,55.9,55.9,100,30.00,4.0,SSW,5.8,-,N/A,,Mostly Cloudy,200,2013-01-12 11:53:00
7:00 AM,57.2,57.2,100,30.00,8.0,SSW,5.8,-,N/A,,Scattered Clouds,200,2013-01-12 12:00:00
7:07 AM,57.2,57.2,100,30.00,10.0,SSW,4.6,-,N/A,,Mostly Cloudy,210,2013-01-12 12:07:00
7:39 AM,57.2,57.2,100,30.02,4.0,SSW,3.5,-,N/A,,Mostly Cloudy,200,2013-01-12 12:39:00
7:53 AM,57.0,57.0,100,30.02,9.0,Calm,Calm,-,N/A,,Mostly Cloudy,0,2013-01-12 12:53:00
8:13 AM,57.2,57.2,100,30.03,9.0,SW,3.5,-,N/A,,Overcast,220,2013-01-12 13:13:00
8:20 AM,59.0,57.2,94,30.03,9.0,SSW,3.5,-,N/A,,Overcast,210,2013-01-12 13:20:00
8:53 AM,57.9,57.9,100,30.03,5.0,SE,3.5,-,N/A,,Mostly Cloudy,130,2013-01-12 13:53:00
9:44 AM,62.6,60.8,94,30.03,10.0,SE,3.5,-,N/A,,Mostly Cloudy,130,2013-01-12 14:44:00
9:53 AM,63.0,62.1,97,30.03,10.0,South,4.6,-,N/A,,Mostly Cloudy,180,2013-01-12 14:53:00
10:37 AM,62.6,60.8,94,30.03,10.0,South,4.6,-,N/A,,Mostly Cloudy,190,2013-01-12 15:37:00
10:53 AM,64.0,61.0,90,30.02,10.0,SSW,6.9,-,N/A,,Mostly Cloudy,200,2013-01-12 15:53:00
11:03 AM,64.4,62.6,94,30.03,10.0,South,4.6,-,N/A,,Overcast,180,2013-01-12 16:03:00
11:53 AM,64.9,62.1,90,30.01,10.0,South,3.5,-,N/A,,Overcast,170,2013-01-12 16:53:00
12:53 PM,64.0,62.1,93,29.98,10.0,SE,3.5,-,N/A,,Overcast,130,2013-01-12 17:53:00
1:19 PM,64.4,62.6,94,29.98,10.0,SSE,5.8,-,N/A,,Overcast,150,2013-01-12 18:19:00
1:42 PM,64.4,62.6,94,29.98,7.0,SSE,5.8,-,0.00,Rain,Light Rain,160,2013-01-12 18:42:00
1:53 PM,64.0,63.0,96,29.97,6.0,SSE,5.8,-,0.00,Rain,Light Rain,150,2013-01-12 18:53:00
1:57 PM,64.4,62.6,94,29.98,10.0,SSE,5.8,-,0.00,,Overcast,150,2013-01-12 18:57:00
2:13 PM,64.4,62.6,94,29.98,10.0,SSE,4.6,-,0.00,,Overcast,160,2013-01-12 19:13:00
2:30 PM,64.4,62.6,94,29.98,10.0,SSE,6.9,-,0.00,,Overcast,150,2013-01-12 19:30:00
2:45 PM,64.4,62.6,94,29.97,10.0,SE,5.8,-,0.00,,Overcast,130,2013-01-12 19:45:00
2:53 PM,64.0,63.0,96,29.96,10.0,SE,5.8,-,0.00,,Overcast,140,2013-01-12 19:53:00
3:53 PM,63.0,63.0,100,29.94,8.0,SE,6.9,-,N/A,,Overcast,130,2013-01-12 20:53:00
4:50 PM,62.6,62.6,100,29.92,10.0,SE,8.1,-,0.01,,Overcast,130,2013-01-12 21:50:00
4:53 PM,63.0,63.0,100,29.91,10.0,ESE,8.1,-,0.01,Rain,Light Rain,120,2013-01-12 21:53:00
5:12 PM,62.6,62.6,100,29.94,10.0,SSW,3.5,-,0.01,,Overcast,200,2013-01-12 22:12:00
5:53 PM,64.0,63.0,96,29.94,9.0,South,6.9,-,0.01,Rain,Light Rain,180,2013-01-12 22:53:00
6:18 PM,62.6,62.6,100,29.93,10.0,SSE,8.1,-,0.01,,Overcast,160,2013-01-12 23:18:00
6:53 PM,62.1,62.1,100,29.89,10.0,SSE,8.1,-,0.01,,Overcast,150,2013-01-12 23:53:00
7:40 PM,62.6,62.6,100,29.89,10.0,SSE,9.2,-,N/A,,Mostly Cloudy,150,2013-01-13 00:40:00
8:16 PM,62.6,62.6,100,29.90,10.0,SSE,9.2,-,N/A,,Overcast,160,2013-01-13 01:16:00
8:53 PM,63.0,62.1,97,29.87,10.0,SSE,10.4,-,N/A,,Overcast,160,2013-01-13 01:53:00
9:53 PM,63.0,61.0,93,29.86,10.0,SSE,9.2,-,0.00,,Overcast,160,2013-01-13 02:53:00
10:53 PM,64.0,61.0,90,29.85,10.0,South,10.4,-,N/A,,Overcast,180,2013-01-13 03:53:00
11:53 PM,64.0,60.1,87,29.82,10.0,SSE,12.7,-,N/A,,Mostly Cloudy,160,2013-01-13 04:53:00